When you browse on this site, cookies collect data to enhance your experience and personalize the content and advertising you see.
Visit our Privacy Policy to learn more. By continuing to use the site, you agree to this use of cookies and data.
  • In Latvia
  • List of Countries
  • For 7 days
  • Water Temperature
  • Satellite Maps
  • Weather Map
  • Weather Widgets
  • user-avatar
    Login

    Hourly Weather Nizhniy Tukshum

    Today, 17 June, Monday

    Time Temperature Precipitation Wind Pressure Humidity
    00:00 +13°C° 0 mm 2 mps 751 mmHg 89%
    01:00 +12°C° 0 mm 2 mps 751 mmHg 90%
    02:00 +12°C° 0 mm 2 mps 751 mmHg 91%
    03:00 +12°C° 0 mm 2 mps 751 mmHg 92%
    04:00 +13°C° 0 mm 2 mps 752 mmHg 89%
    05:00 +14°C° 0 mm 2 mps 752 mmHg 86%
    06:00 +15°C° 0 mm 2 mps 752 mmHg 82%
    07:00 +17°C° 0 mm 2 mps 752 mmHg 76%
    08:00 +18°C° 0 mm 2 mps 752 mmHg 70%
    09:00 +20°C° 0 mm 3 mps 752 mmHg 63%
    10:00 +21°C° 0 mm 3 mps 752 mmHg 60%
    11:00 +22°C° 0 mm 3 mps 752 mmHg 57%
    12:00 +22°C° 0 mm 3 mps 752 mmHg 54%
    13:00 +23°C° 0 mm 4 mps 752 mmHg 54%
    14:00 +23°C° 0 mm 4 mps 751 mmHg 53%
    15:00 +23°C° 0 mm 4 mps 751 mmHg 53%
    16:00 +24°C° 0 mm 3 mps 751 mmHg 58%
    17:00 +24°C° 0 mm 3 mps 751 mmHg 64%
    18:00 +23°C° 0 mm 2 mps 751 mmHg 69%
    19:00 +20°C° 0 mm 2 mps 751 mmHg 74%
    20:00 +19°C° 0 mm 2 mps 751 mmHg 79%
    21:00 +17°C° 0 mm 2 mps 751 mmHg 84%
    22:00 +17°C° 0 mm 2 mps 751 mmHg 84%
    23:00 +17°C° 0 mm 3 mps 751 mmHg 83%

    Tomorrow, 18 June, Tuesday

    Time Temperature Precipitation Wind Pressure Humidity
    00:00 +17°C° 0 mm 3 mps 751 mmHg 83%
    01:00 +16°C° 0 mm 3 mps 751 mmHg 85%
    02:00 +14°C° 0 mm 3 mps 751 mmHg 88%
    03:00 +14°C° 0 mm 3 mps 751 mmHg 91%
    04:00 +16°C° 0 mm 3 mps 751 mmHg 88%
    05:00 +17°C° 0 mm 3 mps 751 mmHg 85%
    06:00 +18°C° 0 mm 3 mps 751 mmHg 82%
    07:00 +19°C° 0.1 mm 3 mps 751 mmHg 78%
    08:00 +21°C° 0.1 mm 3 mps 751 mmHg 73%
    09:00 +22°C° 0.1 mm 3 mps 751 mmHg 69%
    10:00 +24°C° 0.3 mm 2 mps 751 mmHg 66%
    11:00 +24°C° 0.3 mm 2 mps 751 mmHg 63%
    12:00 +25°C° 0.3 mm 2 mps 751 mmHg 60%
    13:00 +25°C° 0.7 mm 2 mps 751 mmHg 62%
    14:00 +25°C° 0.7 mm 2 mps 750 mmHg 64%
    15:00 +25°C° 0.7 mm 2 mps 750 mmHg 66%
    16:00 +24°C° 0.5 mm 2 mps 750 mmHg 71%
    17:00 +24°C° 0.5 mm 2 mps 750 mmHg 76%
    18:00 +23°C° 0.5 mm 2 mps 750 mmHg 81%
    19:00 +21°C° 0.3 mm 2 mps 750 mmHg 84%
    20:00 +19°C° 0.3 mm 2 mps 750 mmHg 86%
    21:00 +18°C° 0.3 mm 2 mps 750 mmHg 89%
    22:00 +17°C° 0 mm 2 mps 750 mmHg 89%
    23:00 +18°C° 0 mm 1 mps 750 mmHg 89%

    Day after tomorrow, 19 June, Wednesday

    Time Temperature Precipitation Wind Pressure Humidity
    00:00 +16°C° 0 mm 1 mps 750 mmHg 89%
    01:00 +16°C° 0 mm 1 mps 750 mmHg 90%
    02:00 +16°C° 0 mm 1 mps 749 mmHg 91%
    03:00 +15°C° 0 mm 1 mps 749 mmHg 92%
    04:00 +16°C° 0 mm 1 mps 749 mmHg 91%
    05:00 +18°C° 0 mm 1 mps 750 mmHg 89%
    06:00 +19°C° 0 mm 1 mps 750 mmHg 88%
    07:00 +19°C° 0.2 mm 2 mps 750 mmHg 83%
    08:00 +21°C° 0.2 mm 2 mps 750 mmHg 78%
    09:00 +23°C° 0.2 mm 2 mps 750 mmHg 73%
    10:00 +24°C° 0.5 mm 3 mps 750 mmHg 70%
    11:00 +24°C° 0.5 mm 3 mps 750 mmHg 67%
    12:00 +25°C° 0.5 mm 3 mps 750 mmHg 64%
    13:00 +25°C° 0.3 mm 3 mps 750 mmHg 64%
    14:00 +25°C° 0.3 mm 3 mps 750 mmHg 63%
    15:00 +25°C° 0.3 mm 3 mps 750 mmHg 63%
    16:00 +25°C° 0.3 mm 3 mps 750 mmHg 67%
    17:00 +24°C° 0.3 mm 3 mps 750 mmHg 72%
    18:00 +24°C° 0.3 mm 3 mps 750 mmHg 76%
    19:00 +21°C° 0 mm 3 mps 751 mmHg 81%
    20:00 +20°C° 0 mm 3 mps 751 mmHg 87%
    21:00 +18°C° 0 mm 3 mps 751 mmHg 92%
    22:00 +17°C° 0 mm 3 mps 752 mmHg 90%
    23:00 +17°C° 0 mm 3 mps 752 mmHg 89%

    20 June, Thursday

    Time Temperature Precipitation Wind Pressure Humidity
    00:00 +16°C° 0 mm 2 mps 752 mmHg 88%
    01:00 +16°C° 0 mm 2 mps 752 mmHg 88%
    02:00 +15°C° 0 mm 2 mps 752 mmHg 88%
    03:00 +15°C° 0 mm 2 mps 752 mmHg 88%
    04:00 +16°C° 0 mm 2 mps 753 mmHg 85%
    05:00 +17°C° 0 mm 2 mps 753 mmHg 82%
    06:00 +18°C° 0 mm 2 mps 754 mmHg 79%
    07:00 +20°C° 0 mm 2 mps 754 mmHg 73%
    08:00 +21°C° 0 mm 2 mps 754 mmHg 67%
    09:00 +23°C° 0 mm 2 mps 754 mmHg 61%
    10:00 +24°C° 0 mm 2 mps 754 mmHg 59%
    11:00 +25°C° 0 mm 2 mps 754 mmHg 56%
    12:00 +26°C° 0 mm 2 mps 754 mmHg 53%
    13:00 +26°C° 0 mm 2 mps 754 mmHg 53%
    14:00 +27°C° 0 mm 2 mps 754 mmHg 52%
    15:00 +27°C° 0 mm 2 mps 754 mmHg 52%
    16:00 +27°C° 0 mm 2 mps 754 mmHg 57%
    17:00 +26°C° 0 mm 1 mps 754 mmHg 62%
    18:00 +26°C° 0 mm 1 mps 754 mmHg 67%
    19:00 +24°C° 0 mm 1 mps 755 mmHg 71%
    20:00 +22°C° 0 mm 1 mps 755 mmHg 75%
    21:00 +20°C° 0 mm 1 mps 755 mmHg 78%
    22:00 +20°C° 0 mm 1 mps 755 mmHg 80%
    23:00 +19°C° 0 mm 1 mps 755 mmHg 81%

    21 June, Friday

    Time Temperature Precipitation Wind Pressure Humidity
    00:00 +19°C° 0 mm 1 mps 755 mmHg 83%
    01:00 +19°C° 0 mm 1 mps 755 mmHg 84%
    02:00 +18°C° 0 mm 1 mps 755 mmHg 85%
    03:00 +18°C° 0 mm 1 mps 756 mmHg 86%
    04:00 +19°C° 0 mm 1 mps 756 mmHg 84%
    05:00 +20°C° 0 mm 1 mps 756 mmHg 82%
    06:00 +22°C° 0 mm 1 mps 756 mmHg 79%
    07:00 +23°C° 0 mm 2 mps 756 mmHg 75%
    08:00 +24°C° 0 mm 2 mps 756 mmHg 70%
    09:00 +26°C° 0 mm 2 mps 756 mmHg 65%
    10:00 +27°C° 0.3 mm 2 mps 756 mmHg 61%
    11:00 +27°C° 0.3 mm 3 mps 756 mmHg 57%
    12:00 +28°C° 0.3 mm 3 mps 756 mmHg 53%
    13:00 +28°C° 0 mm 3 mps 756 mmHg 52%
    14:00 +28°C° 0 mm 3 mps 756 mmHg 52%
    15:00 +28°C° 0 mm 3 mps 756 mmHg 51%
    16:00 +27°C° 0 mm 3 mps 756 mmHg 56%
    17:00 +27°C° 0 mm 2 mps 756 mmHg 60%
    18:00 +26°C° 0 mm 2 mps 756 mmHg 65%
    19:00 +24°C° 0 mm 1 mps 756 mmHg 66%
    20:00 +23°C° 0 mm 1 mps 756 mmHg 66%
    21:00 +21°C° 0 mm 1 mps 757 mmHg 67%
    22:00 +21°C° 0 mm 1 mps 757 mmHg 68%
    23:00 +20°C° 0 mm 1 mps 757 mmHg 69%

    22 June, Saturday

    Time Temperature Precipitation Wind Pressure Humidity
    00:00 +20°C° 0 mm 1 mps 757 mmHg 70%
    01:00 +19°C° 0 mm 1 mps 757 mmHg 72%
    02:00 +19°C° 0 mm 1 mps 757 mmHg 74%
    03:00 +19°C° 0 mm 1 mps 757 mmHg 76%
    04:00 +20°C° 0 mm 1 mps 757 mmHg 76%
    05:00 +21°C° 0 mm 1 mps 757 mmHg 75%
    06:00 +22°C° 0 mm 1 mps 758 mmHg 74%
    07:00 +24°C° 0 mm 1 mps 758 mmHg 69%
    08:00 +25°C° 0 mm 1 mps 758 mmHg 64%
    09:00 +25°C° 0 mm 0 mps 758 mmHg 59%
    10:00 +27°C° 0 mm 1 mps 758 mmHg 56%
    11:00 +28°C° 0 mm 1 mps 758 mmHg 52%
    12:00 +29°C° 0 mm 1 mps 757 mmHg 48%
    13:00 +29°C° 0 mm 1 mps 757 mmHg 47%
    14:00 +29°C° 0 mm 1 mps 757 mmHg 46%
    15:00 +29°C° 0 mm 1 mps 757 mmHg 45%
    16:00 +29°C° 0 mm 1 mps 757 mmHg 51%
    17:00 +27°C° 0 mm 0 mps 757 mmHg 56%
    18:00 +26°C° 0 mm 0 mps 757 mmHg 61%
    19:00 +24°C° 0 mm 0 mps 757 mmHg 63%
    20:00 +23°C° 0 mm 0 mps 757 mmHg 66%
    21:00 +23°C° 0 mm 1 mps 757 mmHg 68%
    22:00 +22°C° 0 mm 1 mps 757 mmHg 69%
    23:00 +22°C° 0 mm 1 mps 757 mmHg 71%
    Show more